Location: Saint-Hippolyte
(43.6394°N, 4.7559°E)
Time: 14:36:43
(UTC+00:00)

Cosmos 1726 Rocket - Pass Details

Date: 24 October 2020
Orbit: 604 x 628 km, 82.5° (Epoch: 23 November)

Event Time Altitude Azimuth Distance (km) Brightness Sun altitude
Rises 17:37:47 0° 178° (S) 2,848 7.0 -10.6°
Reaches altitude 10° 17:40:00 10° 175° (S) 1,952 6.1 -11.0°
Maximum altitude 17:44:15 62° 95° (E) 689 3.5 -11.8°
Drops below altitude 10° 17:48:35 10° 15° (NNE) 1,982 6.0 -12.5°
Sets 17:50:50 0° 12° (NNE) 2,896 6.8 -12.9°
